| time (UTC) | temp C | wind direction | speed KPH | gust KPH | rain 1hr cm | rain 24hr cm | rain mn cm | humidity % | barometer mb |
| 20260505224005 | 19 | 192 | 11.3 | 12.9 | 0.00 | 0.00 | 0.00 | 57 | 1015.2 |
| 20260505223502 | 18 | 190 | 4.8 | 8.0 | 0.00 | 0.00 | 0.00 | 60 | 1015.2 |
| 20260505222958 | 19 | 186 | 6.4 | 9.7 | 0.00 | 0.00 | 0.00 | 57 | 1015.6 |
| 20260505222454 | 19 | 252 | 0.0 | 0.0 | 0.00 | 0.00 | 0.00 | 56 | 1015.6 |
| 20260505221950 | 19 | 235 | 8.0 | 11.3 | 0.00 | 0.00 | 0.00 | 56 | 1015.6 |
| 20260505221448 | 19 | 243 | 12.9 | 14.5 | 0.00 | 0.00 | 0.00 | 58 | 1015.6 |
| 20260505220945 | 19 | 193 | 8.0 | 9.7 | 0.00 | 0.00 | 0.00 | 56 | 1015.6 |
| 20260505220442 | 19 | 164 | 6.4 | 11.3 | 0.00 | 0.00 | 0.00 | 55 | 1015.6 |
| 20260505215940 | 18 | 241 | 14.5 | 16.1 | 0.00 | 0.00 | 0.00 | 57 | 1015.6 |
| 20260505215438 | 18 | 236 | 6.4 | 8.0 | 0.00 | 0.00 | 0.00 | 61 | 1015.6 |
| 20260505214935 | 18 | 204 | 8.0 | 11.3 | 0.00 | 0.00 | 0.00 | 64 | 1015.6 |
| 20260505214433 | 18 | 226 | 11.3 | 14.5 | 0.00 | 0.00 | 0.00 | 64 | 1015.6 |
| 20260505213930 | 18 | 209 | 11.3 | 14.5 | 0.00 | 0.00 | 0.00 | 66 | 1015.6 |
| 20260505213427 | 19 | 183 | 4.8 | 8.0 | 0.00 | 0.00 | 0.00 | 65 | 1015.9 |
| 20260505212923 | 18 | 250 | 12.9 | 16.1 | 0.00 | 0.00 | 0.00 | 64 | 1015.6 |
| 20260505212420 | 19 | 258 | 11.3 | 14.5 | 0.00 | 0.00 | 0.00 | 65 | 1015.9 |
| 20260505211917 | 19 | 162 | 11.3 | 14.5 | 0.00 | 0.00 | 0.00 | 64 | 1015.9 |
| 20260505211415 | 18 | 266 | 4.8 | 14.5 | 0.00 | 0.00 | 0.00 | 63 | 1015.9 |
| 20260505210910 | 18 | 236 | 12.9 | 14.5 | 0.00 | 0.00 | 0.00 | 62 | 1015.9 |
| 20260505210408 | 19 | 207 | 12.9 | 14.5 | 0.00 | 0.00 | 0.00 | 62 | 1015.9 |
| 20260505205905 | 18 | 203 | 11.3 | 12.9 | 0.00 | 0.00 | 0.00 | 63 | 1015.9 |
| 20260505205403 | 18 | 227 | 8.0 | 9.7 | 0.00 | 0.00 | 0.00 | 61 | 1015.9 |
| 20260505204900 | 18 | 217 | 16.1 | 16.1 | 0.00 | 0.00 | 0.00 | 65 | 1015.9 |
| 20260505204357 | 19 | 198 | 12.9 | 17.7 | 0.00 | 0.00 | 0.00 | 62 | 1015.9 |
| 20260505203855 | 19 | 238 | 8.0 | 11.3 | 0.00 | 0.00 | 0.00 | 60 | 1015.9 |
| 20260505203351 | 18 | 256 | 9.7 | 14.5 | 0.00 | 0.00 | 0.00 | 64 | 1015.9 |
| 20260505202847 | 18 | 240 | 11.3 | 16.1 | 0.00 | 0.00 | 0.00 | 61 | 1015.6 |
| 20260505202343 | 18 | 239 | 16.1 | 22.5 | 0.00 | 0.00 | 0.00 | 59 | 1015.9 |
| 20260505201840 | 18 | 237 | 9.7 | 12.9 | 0.00 | 0.00 | 0.00 | 62 | 1015.6 |
| 20260505201337 | 19 | 291 | 11.3 | 14.5 | 0.00 | 0.00 | 0.00 | 64 | 1015.6 |
| 20260505200836 | 18 | 233 | 11.3 | 14.5 | 0.00 | 0.00 | 0.00 | 65 | 1015.9 |
| 20260505200332 | 18 | 237 | 8.0 | 12.9 | 0.00 | 0.00 | 0.00 | 66 | 1015.6 |
| 20260505195828 | 18 | 221 | 12.9 | 20.9 | 0.00 | 0.00 | 0.00 | 66 | 1015.9 |
| 20260505195325 | 18 | 271 | 8.0 | 11.3 | 0.00 | 0.00 | 0.00 | 67 | 1015.9 |
| 20260505194822 | 18 | 231 | 8.0 | 9.7 | 0.00 | 0.00 | 0.00 | 67 | 1015.9 |
| 20260505194320 | 17 | 158 | 6.4 | 8.0 | 0.00 | 0.00 | 0.00 | 71 | 1016.2 |
| 20260505193814 | 17 | 245 | 8.0 | 12.9 | 0.00 | 0.00 | 0.00 | 71 | 1016.2 |
| 20260505193313 | 18 | 255 | 14.5 | 17.7 | 0.00 | 0.00 | 0.00 | 69 | 1016.2 |
| 20260505192811 | 18 | 231 | 8.0 | 12.9 | 0.00 | 0.00 | 0.00 | 70 | 1015.9 |
| 20260505192310 | 18 | 194 | 11.3 | 12.9 | 0.00 | 0.00 | 0.00 | 68 | 1016.6 |
| 20260505191806 | 18 | 196 | 6.4 | 12.9 | 0.00 | 0.00 | 0.00 | 70 | 1016.2 |
| 20260505191304 | 18 | 161 | 11.3 | 16.1 | 0.00 | 0.00 | 0.00 | 69 | 1016.2 |
| 20260505190800 | 18 | 217 | 11.3 | 16.1 | 0.00 | 0.00 | 0.00 | 68 | 1016.2 |
| 20260505190255 | 18 | 220 | 11.3 | 14.5 | 0.00 | 0.00 | 0.00 | 69 | 1016.2 |
| 20260505185752 | 17 | 277 | 14.5 | 16.1 | 0.00 | 0.00 | 0.00 | 70 | 1016.2 |
| 20260505185248 | 18 | 186 | 8.0 | 24.1 | 0.00 | 0.00 | 0.00 | 70 | 1016.2 |
| 20260505184744 | 17 | 207 | 9.7 | 12.9 | 0.00 | 0.00 | 0.00 | 71 | 1016.2 |
| 20260505184242 | 17 | 260 | 12.9 | 16.1 | 0.00 | 0.00 | 0.00 | 71 | 1016.2 |
| 20260505183739 | 17 | 198 | 4.8 | 9.7 | 0.00 | 0.00 | 0.00 | 68 | 1015.9 |
| 20260505183236 | 18 | 190 | 12.9 | 14.5 | 0.00 | 0.00 | 0.00 | 67 | 1016.2 |
| 20260505182732 | 17 | 248 | 6.4 | 8.0 | 0.00 | 0.00 | 0.00 | 71 | 1016.2 |
| 20260505182229 | 17 | 256 | 4.8 | 11.3 | 0.00 | 0.00 | 0.00 | 70 | 1016.2 |
| 20260505181725 | 17 | 181 | 11.3 | 20.9 | 0.00 | 0.00 | 0.00 | 70 | 1016.2 |
| 20260505181223 | 17 | 217 | 11.3 | 17.7 | 0.00 | 0.00 | 0.00 | 72 | 1015.9 |
| 20260505180720 | 17 | 172 | 11.3 | 16.1 | 0.00 | 0.00 | 0.00 | 72 | 1015.9 |
| 20260505180216 | 17 | 259 | 14.5 | 17.7 | 0.00 | 0.00 | 0.00 | 74 | 1016.2 |
| 20260505175712 | 17 | 193 | 8.0 | 12.9 | 0.00 | 0.00 | 0.00 | 75 | 1015.9 |
| 20260505175209 | 17 | 242 | 4.8 | 8.0 | 0.00 | 0.00 | 0.00 | 75 | 1015.9 |
| 20260505174705 | 17 | 235 | 8.0 | 11.3 | 0.00 | 0.00 | 0.00 | 76 | 1015.9 |
| 20260505174202 | 17 | 238 | 12.9 | 14.5 | 0.00 | 0.00 | 0.00 | 74 | 1015.9 |
| 20260505173659 | 17 | 211 | 11.3 | 14.5 | 0.00 | 0.00 | 0.00 | 77 | 1015.9 |
| 20260505173155 | 17 | 261 | 8.0 | 14.5 | 0.00 | 0.00 | 0.00 | 78 | 1015.9 |
| 20260505172653 | 16 | 205 | 4.8 | 4.8 | 0.00 | 0.00 | 0.00 | 76 | 1015.9 |
| 20260505172149 | 16 | 172 | 8.0 | 9.7 | 0.00 | 0.00 | 0.00 | 80 | 1015.6 |
| 20260505171649 | 16 | 195 | 6.4 | 11.3 | 0.00 | 0.00 | 0.00 | 80 | 1015.9 |
| 20260505171147 | 16 | 267 | 8.0 | 14.5 | 0.00 | 0.00 | 0.00 | 79 | 1015.9 |
| 20260505170644 | 16 | 228 | 9.7 | 12.9 | 0.00 | 0.00 | 0.00 | 78 | 1015.6 |
| 20260505170140 | 16 | 162 | 14.5 | 17.7 | 0.00 | 0.00 | 0.00 | 78 | 1015.6 |
| 20260505165635 | 16 | 299 | 1.6 | 9.7 | 0.00 | 0.00 | 0.00 | 78 | 1015.6 |
| 20260505165131 | 17 | 214 | 8.0 | 11.3 | 0.00 | 0.00 | 0.00 | 77 | 1015.6 |
| 20260505164626 | 17 | 275 | 0.0 | 0.0 | 0.00 | 0.00 | 0.00 | 76 | 1015.2 |
| 20260505164124 | 16 | 230 | 11.3 | 17.7 | 0.00 | 0.00 | 0.00 | 76 | 1015.6 |
| 20260505163622 | 16 | 248 | 0.0 | 0.0 | 0.00 | 0.00 | 0.00 | 78 | 1015.6 |
| 20260505163120 | 16 | 234 | 11.3 | 12.9 | 0.00 | 0.00 | 0.00 | 77 | 1015.6 |
| 20260505162617 | 16 | 216 | 1.6 | 4.8 | 0.00 | 0.00 | 0.00 | 79 | 1015.6 |
| 20260505162115 | 16 | 232 | 4.8 | 9.7 | 0.00 | 0.00 | 0.00 | 79 | 1015.2 |
| 20260505161611 | 16 | 322 | 1.6 | 8.0 | 0.00 | 0.00 | 0.00 | 80 | 1015.2 |
| 20260505161109 | 16 | 242 | 14.5 | 22.5 | 0.00 | 0.00 | 0.00 | 79 | 1015.2 |
| 20260505160607 | 16 | 208 | 4.8 | 4.8 | 0.00 | 0.00 | 0.00 | 79 | 1014.9 |
| 20260505160104 | 16 | 160 | 0.0 | 3.2 | 0.00 | 0.00 | 0.00 | 79 | 1014.9 |
| 20260505153044 | 16 | 214 | 9.7 | 12.9 | 0.00 | 0.00 | 0.00 | 83 | 1014.9 |
| 20260505152540 | 16 | 190 | 8.0 | 14.5 | 0.00 | 0.00 | 0.00 | 82 | 1014.9 |
| 20260505152036 | 16 | 250 | 11.3 | 12.9 | 0.00 | 0.00 | 0.00 | 82 | 1014.9 |
| 20260505151531 | 15 | 266 | 9.7 | 11.3 | 0.00 | 0.00 | 0.00 | 83 | 1014.9 |
| 20260505151029 | 16 | 158 | 11.3 | 12.9 | 0.00 | 0.00 | 0.00 | 82 | 1014.9 |
| 20260505150525 | 16 | 267 | 0.0 | 0.0 | 0.00 | 0.00 | 0.00 | 82 | 1014.9 |
| 20260505140450 | 15 | 229 | 0.0 | 0.0 | 0.00 | 0.00 | 0.00 | 88 | 1014.6 |
| 20260505124903 | 14 | 240 | 4.8 | 9.7 | 0.00 | 0.00 | 0.00 | 88 | 1014.2 |
| 20260505124400 | 14 | 239 | 0.0 | 0.0 | 0.00 | 0.00 | 0.00 | 88 | 1014.6 |
| 20260505123856 | 14 | 250 | 6.4 | 9.7 | 0.00 | 0.00 | 0.00 | 88 | 1014.6 |
| 20260505123353 | 13 | 258 | 0.0 | 0.0 | 0.00 | 0.00 | 0.00 | 88 | 1014.2 |
| 20260505122849 | 13 | 243 | 4.8 | 9.7 | 0.00 | 0.00 | 0.00 | 88 | 1014.2 |
| 20260505122347 | 13 | 253 | 0.0 | 0.0 | 0.00 | 0.00 | 0.00 | 88 | 1014.2 |
| 20260505121843 | 13 | 222 | 0.0 | 0.0 | 0.00 | 0.00 | 0.00 | 88 | 1013.9 |
| 20260505121340 | 13 | 246 | 0.0 | 0.0 | 0.00 | 0.00 | 0.00 | 88 | 1014.2 |
| 20260505120836 | 14 | 195 | 0.0 | 0.0 | 0.00 | 0.00 | 0.00 | 87 | 1014.2 |
| 20260505120332 | 14 | 283 | 0.0 | 0.0 | 0.00 | 0.00 | 0.00 | 87 | 1014.2 |
| 20260505115831 | 13 | 251 | 0.0 | 0.0 | 0.00 | 0.00 | 0.00 | 86 | 1013.9 |
| 20260505115328 | 14 | 277 | 0.0 | 0.0 | 0.00 | 0.00 | 0.00 | 86 | 1014.2 |
| 20260505114826 | 14 | 271 | 0.0 | 0.0 | 0.00 | 0.00 | 0.00 | 86 | 1014.2 |
| 20260505114322 | 14 | 235 | 0.0 | 0.0 | 0.00 | 0.00 | 0.00 | 86 | 1014.2 |
| 20260505113819 | 14 | 244 | 0.0 | 0.0 | 0.00 | 0.00 | 0.00 | 85 | 1014.2 |
| 20260505113315 | 14 | 236 | 0.0 | 0.0 | 0.00 | 0.00 | 0.00 | 86 | 1014.2 |
| 20260505112811 | 14 | 251 | 0.0 | 0.0 | 0.00 | 0.00 | 0.00 | 87 | 1014.2 |
| 20260505112309 | 14 | 223 | 0.0 | 0.0 | 0.00 | 0.00 | 0.00 | 87 | 1014.2 |
| 20260505111804 | 14 | 215 | 0.0 | 0.0 | 0.00 | 0.00 | 0.00 | 86 | 1014.2 |
| 20260505111300 | 14 | 232 | 0.0 | 0.0 | 0.00 | 0.00 | 0.00 | 86 | 1014.6 |
| 20260505110756 | 15 | 252 | 0.0 | 0.0 | 0.00 | 0.00 | 0.00 | 85 | 1014.2 |
| 20260505110254 | 15 | 259 | 0.0 | 0.0 | 0.00 | 0.00 | 0.00 | 84 | 1014.2 |
| 20260505101728 | 15 | 240 | 0.0 | 0.0 | 0.00 | 0.00 | 0.00 | 82 | 1014.6 |
| 20260505101223 | 15 | 228 | 0.0 | 0.0 | 0.00 | 0.00 | 0.00 | 83 | 1014.2 |
| 20260505100720 | 15 | 224 | 0.0 | 0.0 | 0.00 | 0.00 | 0.00 | 86 | 1014.2 |
| 20260505100217 | 15 | 275 | 0.0 | 0.0 | 0.00 | 0.00 | 0.00 | 85 | 1014.6 |
| 20260505095712 | 15 | 259 | 0.0 | 0.0 | 0.00 | 0.00 | 0.00 | 84 | 1014.2 |
| 20260505095211 | 15 | 210 | 0.0 | 0.0 | 0.00 | 0.00 | 0.00 | 85 | 1014.6 |
| 20260505094706 | 15 | 242 | 0.0 | 0.0 | 0.00 | 0.00 | 0.00 | 85 | 1014.6 |
| 20260505094203 | 15 | 254 | 12.9 | 12.9 | 0.00 | 0.00 | 0.00 | 86 | 1014.6 |
| 20260505093659 | 15 | 250 | 0.0 | 0.0 | 0.00 | 0.00 | 0.00 | 88 | 1014.6 |
| 20260505093157 | 15 | 230 | 0.0 | 0.0 | 0.00 | 0.00 | 0.00 | 88 | 1014.6 |
| 20260505092653 | 15 | 243 | 0.0 | 0.0 | 0.00 | 0.00 | 0.00 | 89 | 1014.9 |
| 20260505092152 | 15 | 193 | 0.0 | 0.0 | 0.00 | 0.00 | 0.00 | 90 | 1014.9 |
| 20260505091649 | 15 | 170 | 0.0 | 0.0 | 0.00 | 0.00 | 0.00 | 91 | 1014.9 |
| 20260505091147 | 15 | 179 | 0.0 | 0.0 | 0.00 | 0.00 | 0.00 | 91 | 1014.9 |
| 20260505090644 | 15 | 184 | 0.0 | 0.0 | 0.00 | 0.00 | 0.00 | 91 | 1014.9 |
| 20260505090142 | 15 | 188 | 0.0 | 0.0 | 0.00 | 0.00 | 0.00 | 91 | 1014.9 |
| 20260505085639 | 15 | 202 | 0.0 | 0.0 | 0.00 | 0.00 | 0.00 | 91 | 1014.9 |
| 20260505085137 | 15 | 206 | 0.0 | 0.0 | 0.00 | 0.00 | 0.00 | 90 | 1014.9 |
| 20260505084635 | 15 | 212 | 0.0 | 0.0 | 0.00 | 0.00 | 0.00 | 90 | 1014.9 |
| 20260505084133 | 15 | 234 | 0.0 | 0.0 | 0.00 | 0.00 | 0.00 | 89 | 1014.9 |
| 20260505083630 | 15 | 204 | 0.0 | 0.0 | 0.00 | 0.00 | 0.00 | 89 | 1015.2 |
| 20260505083127 | 15 | 190 | 0.0 | 0.0 | 0.00 | 0.00 | 0.00 | 89 | 1014.9 |
| 20260505082623 | 15 | 228 | 0.0 | 0.0 | 0.00 | 0.00 | 0.00 | 89 | 1014.9 |
| 20260505082120 | 15 | 249 | 0.0 | 0.0 | 0.00 | 0.00 | 0.00 | 90 | 1014.9 |
| 20260505081616 | 15 | 238 | 0.0 | 0.0 | 0.00 | 0.00 | 0.00 | 90 | 1015.2 |
| 20260505081114 | 15 | 240 | 0.0 | 0.0 | 0.00 | 0.00 | 0.00 | 90 | 1015.2 |
| 20260505080609 | 15 | 224 | 0.0 | 0.0 | 0.00 | 0.00 | 0.00 | 90 | 1015.2 |
| 20260505080106 | 15 | 226 | 0.0 | 0.0 | 0.00 | 0.00 | 0.00 | 90 | 1015.2 |
| 20260505075602 | 15 | 205 | 0.0 | 0.0 | 0.00 | 0.00 | 0.00 | 91 | 1015.6 |
| 20260505075059 | 15 | 241 | 0.0 | 0.0 | 0.00 | 0.00 | 0.00 | 91 | 1015.2 |
| 20260505074556 | 15 | 239 | 0.0 | 0.0 | 0.00 | 0.00 | 0.00 | 91 | 1015.6 |
| 20260505074053 | 15 | 245 | 0.0 | 0.0 | 0.00 | 0.00 | 0.00 | 91 | 1015.6 |
| 20260505073550 | 15 | 243 | 0.0 | 0.0 | 0.00 | 0.00 | 0.00 | 91 | 1015.6 |
| 20260505073049 | 15 | 228 | 0.0 | 0.0 | 0.00 | 0.00 | 0.00 | 91 | 1015.6 |
| 20260505072544 | 15 | 250 | 0.0 | 0.0 | 0.00 | 0.00 | 0.00 | 91 | 1015.6 |
| 20260505072041 | 15 | 231 | 0.0 | 0.0 | 0.00 | 0.00 | 0.00 | 90 | 1015.6 |
| 20260505071536 | 15 | 205 | 0.0 | 0.0 | 0.00 | 0.00 | 0.00 | 90 | 1015.6 |
| 20260505071035 | 15 | 224 | 0.0 | 0.0 | 0.00 | 0.00 | 0.00 | 90 | 1015.6 |
| 20260505070531 | 15 | 215 | 0.0 | 0.0 | 0.00 | 0.00 | 0.00 | 89 | 1015.6 |
| 20260505070027 | 15 | 234 | 0.0 | 0.0 | 0.00 | 0.00 | 0.00 | 89 | 1015.6 |
| 20260505065523 | 15 | 236 | 0.0 | 0.0 | 0.00 | 0.00 | 0.00 | 89 | 1015.6 |
| 20260505065020 | 15 | 259 | 0.0 | 0.0 | 0.00 | 0.00 | 0.00 | 89 | 1015.6 |
| 20260505064517 | 15 | 261 | 0.0 | 0.0 | 0.00 | 0.00 | 0.00 | 89 | 1015.6 |
| 20260505064015 | 15 | 241 | 0.0 | 0.0 | 0.00 | 0.00 | 0.00 | 89 | 1015.6 |
| 20260505063512 | 15 | 275 | 0.0 | 0.0 | 0.00 | 0.00 | 0.00 | 89 | 1015.6 |
| 20260505063008 | 15 | 248 | 0.0 | 0.0 | 0.00 | 0.00 | 0.00 | 89 | 1015.6 |
| 20260505062505 | 15 | 268 | 0.0 | 0.0 | 0.00 | 0.00 | 0.00 | 89 | 1015.6 |
| 20260505062002 | 15 | 213 | 0.0 | 0.0 | 0.00 | 0.00 | 0.00 | 89 | 1015.6 |
| 20260505061500 | 15 | 243 | 0.0 | 0.0 | 0.00 | 0.00 | 0.00 | 89 | 1015.6 |
| 20260505060957 | 15 | 245 | 0.0 | 0.0 | 0.00 | 0.00 | 0.00 | 89 | 1015.6 |
| 20260505060454 | 15 | 224 | 0.0 | 0.0 | 0.00 | 0.00 | 0.00 | 90 | 1015.6 |
| 20260505055950 | 15 | 221 | 0.0 | 0.0 | 0.00 | 0.00 | 0.00 | 90 | 1015.6 |
| 20260505055446 | 15 | 240 | 0.0 | 0.0 | 0.00 | 0.00 | 0.00 | 90 | 1015.6 |
| 20260505054943 | 15 | 266 | 0.0 | 0.0 | 0.00 | 0.00 | 0.00 | 90 | 1015.6 |
| 20260505054441 | 15 | 191 | 0.0 | 0.0 | 0.00 | 0.00 | 0.00 | 90 | 1015.9 |
| 20260505053939 | 15 | 250 | 0.0 | 0.0 | 0.00 | 0.00 | 0.00 | 90 | 1015.6 |
| 20260505053436 | 15 | 244 | 0.0 | 0.0 | 0.00 | 0.00 | 0.00 | 90 | 1015.6 |
| 20260505052932 | 15 | 241 | 0.0 | 0.0 | 0.00 | 0.00 | 0.00 | 89 | 1015.6 |
| 20260505052429 | 15 | 168 | 0.0 | 0.0 | 0.00 | 0.00 | 0.00 | 89 | 1015.9 |
| 20260505051926 | 15 | 244 | 0.0 | 0.0 | 0.00 | 0.00 | 0.00 | 89 | 1015.6 |
| 20260505051423 | 15 | 244 | 0.0 | 0.0 | 0.00 | 0.00 | 0.00 | 89 | 1015.6 |
| 20260505050922 | 15 | 253 | 0.0 | 0.0 | 0.00 | 0.00 | 0.00 | 89 | 1015.6 |
| 20260505050420 | 15 | 230 | 0.0 | 0.0 | 0.00 | 0.00 | 0.00 | 89 | 1015.9 |
| 20260505041347 | 15 | 196 | 0.0 | 0.0 | 0.00 | 0.00 | 0.00 | 87 | 1015.9 |
| 20260505040844 | 15 | 209 | 0.0 | 0.0 | 0.00 | 0.00 | 0.00 | 87 | 1015.9 |
| 20260505040342 | 15 | 184 | 0.0 | 0.0 | 0.00 | 0.00 | 0.00 | 86 | 1015.9 |
| 20260505035838 | 15 | 172 | 0.0 | 0.0 | 0.00 | 0.00 | 0.00 | 87 | 1015.9 |
| 20260505035334 | 15 | 228 | 0.0 | 0.0 | 0.00 | 0.00 | 0.00 | 86 | 1015.9 |
| 20260505034832 | 15 | 172 | 0.0 | 0.0 | 0.00 | 0.00 | 0.00 | 86 | 1015.9 |
| 20260505034328 | 15 | 206 | 0.0 | 0.0 | 0.00 | 0.00 | 0.00 | 86 | 1015.9 |
| 20260505033825 | 15 | 182 | 0.0 | 0.0 | 0.00 | 0.00 | 0.00 | 86 | 1015.9 |
| 20260505033322 | 15 | 189 | 0.0 | 0.0 | 0.00 | 0.00 | 0.00 | 86 | 1015.9 |
| 20260505032820 | 15 | 128 | 0.0 | 0.0 | 0.00 | 0.00 | 0.00 | 86 | 1015.6 |
| 20260505032316 | 15 | 144 | 0.0 | 0.0 | 0.00 | 0.00 | 0.00 | 85 | 1015.9 |
| 20260505031814 | 15 | 134 | 0.0 | 0.0 | 0.00 | 0.00 | 0.00 | 84 | 1015.6 |
| 20260505031310 | 15 | 179 | 0.0 | 0.0 | 0.00 | 0.00 | 0.00 | 85 | 1015.6 |
| 20260505030807 | 15 | 143 | 0.0 | 0.0 | 0.00 | 0.00 | 0.00 | 85 | 1015.6 |
| 20260505030303 | 15 | 150 | 0.0 | 0.0 | 0.00 | 0.00 | 0.00 | 84 | 1015.6 |
| 20260505025759 | 15 | 189 | 0.0 | 0.0 | 0.00 | 0.00 | 0.00 | 85 | 1015.6 |
| 20260505025257 | 15 | 171 | 0.0 | 0.0 | 0.00 | 0.00 | 0.00 | 85 | 1015.6 |
| 20260505024755 | 15 | 134 | 8.0 | 12.9 | 0.00 | 0.00 | 0.00 | 85 | 1015.6 |
| 20260505024252 | 15 | 133 | 9.7 | 11.3 | 0.00 | 0.00 | 0.00 | 85 | 1015.6 |
| 20260505023749 | 15 | 186 | 0.0 | 0.0 | 0.00 | 0.00 | 0.00 | 84 | 1015.6 |
| 20260505023246 | 15 | 181 | 0.0 | 0.0 | 0.00 | 0.00 | 0.00 | 84 | 1015.6 |
| 20260505022743 | 15 | 166 | 0.0 | 0.0 | 0.00 | 0.00 | 0.00 | 84 | 1015.6 |
| 20260505022240 | 15 | 144 | 11.3 | 12.9 | 0.00 | 0.00 | 0.00 | 84 | 1015.6 |
| 20260505021737 | 16 | 204 | 0.0 | 0.0 | 0.00 | 0.00 | 0.00 | 84 | 1015.6 |
| 20260505021234 | 16 | 237 | 0.0 | 0.0 | 0.00 | 0.00 | 0.00 | 84 | 1015.6 |
| 20260505020730 | 16 | 192 | 0.0 | 0.0 | 0.00 | 0.00 | 0.00 | 84 | 1015.9 |
| 20260505020225 | 16 | 228 | 6.4 | 9.7 | 0.00 | 0.00 | 0.00 | 85 | 1015.6 |
| 20260505015723 | 16 | 211 | 11.3 | 14.5 | 0.00 | 0.00 | 0.00 | 84 | 1015.6 |
| 20260505015220 | 16 | 168 | 8.0 | 11.3 | 0.00 | 0.00 | 0.00 | 84 | 1015.6 |
| 20260505014717 | 16 | 238 | 8.0 | 16.1 | 0.00 | 0.00 | 0.00 | 83 | 1015.6 |
| 20260505014214 | 16 | 233 | 6.4 | 9.7 | 0.00 | 0.00 | 0.00 | 80 | 1015.6 |
| 20260505013711 | 16 | 287 | 9.7 | 12.9 | 0.00 | 0.00 | 0.00 | 80 | 1015.6 |
| 20260505013208 | 16 | 265 | 11.3 | 14.5 | 0.00 | 0.00 | 0.00 | 84 | 1015.6 |
| 20260505012706 | 17 | 257 | 8.0 | 11.3 | 0.00 | 0.00 | 0.00 | 82 | 1015.6 |
| 20260505012203 | 17 | 225 | 3.2 | 4.8 | 0.00 | 0.00 | 0.00 | 81 | 1015.6 |
| 20260505011658 | 17 | 262 | 9.7 | 12.9 | 0.00 | 0.00 | 0.00 | 81 | 1015.9 |
| 20260505011156 | 17 | 262 | 6.4 | 9.7 | 0.00 | 0.00 | 0.00 | 80 | 1015.6 |
| 20260505010651 | 17 | 288 | 6.4 | 11.3 | 0.00 | 0.00 | 0.00 | 77 | 1015.6 |
| 20260505010148 | 17 | 203 | 0.0 | 0.0 | 0.00 | 0.00 | 0.00 | 78 | 1015.6 |
| 20260505005644 | 17 | 236 | 9.7 | 11.3 | 0.00 | 0.00 | 0.00 | 79 | 1015.6 |
| 20260505005141 | 17 | 150 | 1.6 | 4.8 | 0.00 | 0.00 | 0.00 | 75 | 1015.6 |
| 20260505004638 | 17 | 197 | 8.0 | 9.7 | 0.00 | 0.00 | 0.00 | 75 | 1015.6 |
| 20260505004135 | 16 | 177 | 1.6 | 3.2 | 0.00 | 0.00 | 0.00 | 77 | 1015.6 |
| 20260505003632 | 16 | 244 | 14.5 | 16.1 | 0.00 | 0.00 | 0.00 | 78 | 1015.6 |
| 20260505003129 | 17 | 217 | 12.9 | 16.1 | 0.00 | 0.00 | 0.00 | 78 | 1015.9 |
| 20260505002625 | 17 | 250 | 11.3 | 14.5 | 0.00 | 0.00 | 0.00 | 77 | 1015.6 |
| 20260505002124 | 17 | 224 | 14.5 | 17.7 | 0.00 | 0.00 | 0.00 | 78 | 1015.6 |
| 20260505001621 | 17 | 242 | 11.3 | 14.5 | 0.00 | 0.00 | 0.00 | 79 | 1015.9 |
| 20260505001118 | 17 | 263 | 8.0 | 12.9 | 0.00 | 0.00 | 0.00 | 80 | 1015.9 |
| 20260505000615 | 17 | 184 | 11.3 | 17.7 | 0.00 | 0.00 | 0.00 | 80 | 1015.9 |
| 20260505000113 | 17 | 248 | 16.1 | 22.5 | 0.00 | 0.00 | 0.00 | 79 | 1015.9 |
| 20260504235609 | 17 | 230 | 9.7 | 14.5 | 0.00 | 0.00 | 0.00 | 79 | 1015.9 |
| 20260504235106 | 17 | 192 | 11.3 | 14.5 | 0.00 | 0.00 | 0.00 | 78 | 1015.9 |
| 20260504234603 | 17 | 257 | 4.8 | 8.0 | 0.00 | 0.00 | 0.00 | 77 | 1015.9 |
| 20260504234100 | 17 | 192 | 6.4 | 9.7 | 0.00 | 0.00 | 0.00 | 77 | 1015.6 |
| 20260504233555 | 17 | 215 | 12.9 | 14.5 | 0.00 | 0.00 | 0.00 | 76 | 1015.9 |
| 20260504233052 | 18 | 174 | 9.7 | 14.5 | 0.00 | 0.00 | 0.00 | 74 | 1015.6 |
| 20260504232549 | 18 | 227 | 9.7 | 16.1 | 0.00 | 0.00 | 0.00 | 74 | 1015.6 |
| 20260504232047 | 18 | 240 | 11.3 | 20.9 | 0.00 | 0.00 | 0.00 | 71 | 1015.6 |
| 20260504231543 | 18 | 202 | 9.7 | 14.5 | 0.00 | 0.00 | 0.00 | 73 | 1015.6 |
| 20260504231039 | 18 | 250 | 19.3 | 25.7 | 0.00 | 0.00 | 0.00 | 73 | 1015.6 |
| 20260504230536 | 18 | 209 | 11.3 | 14.5 | 0.00 | 0.00 | 0.00 | 73 | 1015.6 |
| 20260504230035 | 18 | 182 | 12.9 | 17.7 | 0.00 | 0.00 | 0.00 | 73 | 1015.6 |
| 20260504225531 | 18 | 247 | 0.0 | 0.0 | 0.00 | 0.00 | 0.00 | 73 | 1015.6 |
| 20260504225029 | 18 | 257 | 14.5 | 20.9 | 0.00 | 0.00 | 0.00 | 75 | 1015.6 |
| 20260504224525 | 18 | 184 | 22.5 | 27.4 | 0.00 | 0.00 | 0.00 | 74 | 1015.9 |